Zurück zum Katalog

STARLINK-34873

AktivKommunikationVLEO
NORAD 65346·PAYLOAD·🇺🇸 United States

Gestartet Aug 27, 2025 von Cape Canaveral Space Force Station

Loading…

Nächste Überflüge (nächste 24 Stunden)

TLE

AktuellSource: CelesTrak SupGP

Epoche: Sep 14, 2026, 20:44 UTC

1 65346C 25189Z   26257.86437500  .00040744  00000+0  12043-2 0  2571
2 65346  53.1601  45.7213 0001293  81.4836 256.8724 15.34357118    12

Verfolge STARLINK-34873 in Echtzeit mit AllMySat

Download on the App Store